CASE2 Weather Reports


Display with metric or nautical units.
time (UTC)temp
F
wind
direction
speed
MPH
gust
MPH
rain 1hr
in
rain 24hr
in
rain mn
in
humidity
%
barometer
mb
20260508020035 33 324 0.0 0.0 0.00 0.00 0.00 92 1020.6
20260508014533 34 324 0.0 0.0 0.00 0.00 0.00 92 1020.5
20260508013032 34 324 0.0 0.0 0.00 0.00 0.00 92 1020.4
20260508011540 34 324 0.0 0.0 0.00 0.00 0.00 92 1020.3
20260508010037 34 324 0.0 0.0 0.00 0.00 0.00 92 1020.3
20260508004537 34 324 0.0 0.0 0.00 0.00 0.00 92 1020.2
20260508003028 35 324 0.0 0.0 0.00 0.00 0.00 91 1020.1
20260508001530 35 324 0.0 0.0 0.00 0.00 0.00 91 1020.2
20260508000019 35 324 0.0 0.0 0.00 0.00 0.00 91 1020.1
20260507234523 35 324 0.0 0.0 0.00 0.00 0.00 91 1020.0
20260507233023 35 324 0.0 0.0 0.00 0.00 0.00 91 1020.0
20260507231515 36 324 0.0 0.0 0.00 0.00 0.00 90 1019.9
20260507230013 36 324 0.0 0.0 0.00 0.00 0.00 90 1019.9
20260507224518 37 324 0.0 0.0 0.00 0.00 0.00 90 1019.8
20260507223013 37 324 0.0 0.0 0.00 0.00 0.00 90 1019.8
20260507221510 38 324 0.0 0.0 0.00 0.00 0.00 89 1019.8
20260507220057 38 324 0.0 0.0 0.00 0.00 0.00 88 1019.7
20260507214556 39 324 0.0 0.0 0.00 0.00 0.00 88 1019.7
20260507213056 40 324 0.0 0.0 0.00 0.00 0.00 87 1019.6
20260507211601 41 324 0.0 0.0 0.00 0.00 0.00 86 1019.5
20260507210052 42 324 0.0 0.0 0.00 0.00 0.00 85 1019.4
20260507204551 44 324 0.0 0.0 0.00 0.00 0.00 84 1019.2
20260507203052 45 324 0.0 0.0 0.00 0.00 0.00 83 1019.0
20260507201548 46 324 0.0 0.0 0.00 0.00 0.00 83 1018.9
20260507200034 46 324 0.0 1.0 0.00 0.00 0.00 81 1018.8
20260507194536 47 324 0.0 0.0 0.00 0.00 0.00 79 1018.7
20260507193031 48 324 0.0 1.0 0.00 0.00 0.00 78 1018.6
20260507191530 48 324 0.0 0.0 0.00 0.00 0.00 76 1018.3
20260507190028 49 324 0.0 0.0 0.00 0.00 0.00 75 1018.1
20260507184525 49 324 0.0 0.0 0.00 0.00 0.00 73 1017.9
20260507183025 50 324 0.0 0.0 0.00 0.00 0.00 71 1017.9
20260507181524 51 324 0.0 0.0 0.00 0.00 0.00 71 1017.8
20260507180013 51 324 0.0 1.0 0.00 0.00 0.00 69 1017.7
20260507174515 52 324 0.0 3.0 0.00 0.00 0.00 69 1017.6
20260507173016 52 360 0.0 1.0 0.00 0.00 0.00 68 1017.5
20260507171508 52 321 0.0 4.0 0.00 0.00 0.00 69 1017.3
20260507170007 53 325 0.0 4.0 0.00 0.00 0.00 66 1017.1
20260507164507 53 360 0.0 3.0 0.00 0.00 0.00 63 1017.0
20260507163006 54 333 0.0 2.0 0.00 0.00 0.00 66 1017.2
20260507161505 54 360 0.0 3.0 0.00 0.00 0.00 65 1017.2
20260507160113 54 326 0.0 4.0 0.00 0.00 0.00 66 1017.2
20260507154551 54 304 0.0 4.0 0.00 0.00 0.00 66 1017.3
20260507153050 54 333 0.0 7.0 0.00 0.00 0.00 65 1017.2
20260507151556 54 311 0.0 3.0 0.00 0.00 0.00 64 1017.2
20260507150048 55 306 0.0 6.0 0.00 0.00 0.00 65 1017.2
20260507144547 54 316 0.0 3.0 0.00 0.00 0.00 64 1017.2
20260507143045 55 17 0.0 5.0 0.00 0.00 0.00 66 1017.2
20260507141543 54 295 1.0 5.0 0.00 0.00 0.00 67 1017.2
20260507140041 55 360 0.0 3.0 0.00 0.00 0.00 68 1017.3
20260507134531 54 281 0.0 5.0 0.00 0.00 0.00 68 1017.3
20260507133033 54 304 0.0 4.0 0.00 0.00 0.00 69 1017.3
20260507131548 54 313 0.0 4.0 0.00 0.00 0.00 70 1017.2
20260507130027 54 302 0.0 4.0 0.00 0.00 0.00 68 1017.1
20260507124525 55 333 0.0 4.0 0.00 0.00 0.00 69 1017.0
20260507123028 55 9 0.0 4.0 0.00 0.00 0.00 69 1016.9
20260507121522 55 348 1.0 4.0 0.00 0.00 0.00 67 1016.9
20260507120022 54 347 0.0 4.0 0.00 0.00 0.00 69 1016.7
20260507114508 55 349 0.0 3.0 0.00 0.00 0.00 69 1016.9
20260507113007 54 320 0.0 4.0 0.00 0.00 0.00 72 1016.7
20260507111507 54 321 0.0 3.0 0.00 0.00 0.00 71 1016.7
20260507110006 55 306 0.0 4.0 0.00 0.00 0.00 72 1016.8
20260507104505 54 344 0.0 3.0 0.00 0.00 0.00 73 1016.7
20260507103002 54 327 0.0 2.0 0.00 0.00 0.00 73 1016.7
20260507101601 54 331 0.0 3.0 0.00 0.00 0.00 73 1016.6
20260507100100 54 330 0.0 3.0 0.00 0.00 0.00 74 1016.5
20260507094605 54 300 1.0 4.0 0.00 0.00 0.00 73 1016.4
20260507093041 55 317 0.0 4.0 0.00 0.00 0.00 72 1016.3
20260507091541 54 9 0.0 4.0 0.00 0.00 0.00 73 1016.2
20260507090035 54 309 0.0 4.0 0.00 0.00 0.00 72 1016.1
20260507084546 54 302 0.0 4.0 0.00 0.00 0.00 74 1016.0
20260507083029 54 349 0.0 5.0 0.00 0.00 0.00 73 1016.0
20260507081528 54 344 0.0 4.0 0.00 0.00 0.00 75 1015.7
20260507080023 53 5 0.0 4.0 0.00 0.00 0.00 76 1015.6
20260507074521 52 305 0.0 4.0 0.00 0.00 0.00 78 1015.6
20260507073004 51 360 0.0 2.0 0.00 0.00 0.00 79 1015.4
20260507071507 51 266 0.0 3.0 0.00 0.00 0.00 79 1015.3
20260507070110 50 38 0.0 5.0 0.00 0.00 0.00 80 1015.3
20260507064559 49 257 0.0 5.0 0.00 0.00 0.00 81 1015.2
20260507063055 48 258 0.0 7.0 0.00 0.00 0.00 83 1015.1
20260507061549 47 360 0.0 4.0 0.00 0.00 0.00 88 1015.0
20260507060046 46 227 0.0 6.0 0.00 0.00 0.00 91 1015.0
20260507054542 44 360 1.0 5.0 0.00 0.00 0.00 93 1015.0
20260507053028 43 219 0.0 1.0 0.00 0.00 0.00 93 1015.0
20260507051521 41 219 0.0 1.0 0.00 0.00 0.00 94 1014.9
20260507050036 39 219 0.0 0.0 0.00 0.00 0.00 93 1014.8
20260507044519 37 219 0.0 0.0 0.00 0.00 0.00 93 1014.7
20260507043008 36 219 0.0 0.0 0.00 0.00 0.00 93 1014.6
20260507041505 35 219 0.0 0.0 0.00 0.00 0.00 93 1014.5
20260507040002 35 219 0.0 0.0 0.00 0.00 0.00 93 1014.4
20260507034607 35 219 0.0 0.0 0.00 0.00 0.00 93 1014.4
20260507033102 34 219 0.0 0.0 0.00 0.00 0.00 92 1014.3
20260507031543 33 219 0.0 0.0 0.00 0.00 0.00 92 1014.2
20260507030044 33 219 0.0 0.0 0.00 0.00 0.00 92 1014.2
20260507024545 33 219 0.0 0.0 0.00 0.00 0.00 92 1014.0
20260507023038 34 219 0.0 0.0 0.00 0.00 0.00 92 1014.0
20260507021548 34 219 0.0 0.0 0.00 0.00 0.00 92 1013.9